[[{"header":{"parameterUnit":"m.s-1","parameterCategory":1,"la1":30.2991,"la2":30.254,"lo1":-89.0895,"lo2":-89.0444,"dy":0.0017,"dx":0.0017,"nx":28,"ny":28,"refTime":"2024-06-09T09:00:00:Z","depth":0,"parameterNumber":2,"parameterNumberName":"U-component_of_WINDS"},"data":[0,0,0,0,0,0,0,0,0,0,0,0,0,0,0,0,0,0,0,0,0,0,0,0,0,0,0,0,0,0,0,0,0,0,0,0,0,0,0,0,0,0,0,0,0,0,0,0,0,0,0,0,0,0,0,0,0,0,1.0186,1.0187,0,1.0302,1.0303,1.0305,1.0355,1.0355,1.0355,1.0355,1.0474,1.0477,1.048,0,0,0,0,0,0,0,0,0,0,0,0,0,1.0005,1.0008,1.0185,1.0187,1.0188,1.0302,1.0303,1.0305,1.0355,1.0355,1.0355,1.0355,1.0473,1.0476,1.048,0,0,0,0,0,0,0,0,0,0,0,0,0,1.0099,1.0009,1.0185,1.0227,1.0232,1.0301,1.0303,1.0305,1.0356,1.0355,1.0355,1.0355,1.0471,1.0476,1.0481,1.0517,0,0,1.0496,1.0498,0,0,0,0,0,0,0,0,1.0093,1.0105,1.022,1.0225,1.023,1.0314,1.0283,1.0376,1.0356,1.0309,1.0355,1.0355,1.0421,1.043,1.0452,1.0522,1.0527,1.0497,1.05,1.0502,1.0503,0,0,0,0,0,0,0,1.0087,1.0101,1.0232,1.0221,1.0228,1.024,1.0253,1.0301,1.0365,1.0313,1.0317,1.033,1.0424,1.0447,1.0455,1.0529,1.0497,1.0501,1.0504,1.0506,1.0633,1.0634,0,0,0,0,0,0,1.0074,1.0095,1.0228,1.0235,1.016,1.0243,1.0258,1.0287,1.0364,1.0376,1.033,1.0332,1.0439,1.0449,1.046,1.0506,1.0502,1.0506,1.0509,1.0633,1.0633,1.0634,0,0,0,0,0,0,1.007,1.0085,1.0223,1.0166,1.0185,1.0247,1.0279,1.029,1.0314,1.0377,1.0389,1.0343,1.0439,1.0453,1.0502,1.0511,1.0509,1.0513,1.0633,1.0633,1.0634,1.06,0,0,0,0,0,0,1.0064,1.0083,1.0098,1.0166,1.0187,1.0264,1.028,1.0292,1.0322,1.0326,1.0392,1.0403,1.044,1.0494,1.0507,1.0518,1.0517,1.0632,1.0633,1.0634,1.06,1.0599,1.0598,0,0,0,0,0,1.0058,1.0084,1.0099,1.0114,1.0207,1.0264,1.0277,1.0319,1.0323,1.0338,1.0378,1.0401,1.0508,1.0499,1.0514,1.0526,1.0632,1.0633,1.0633,1.0601,1.0599,1.0598,0,0,0,0,0,0,1.0015,1.0094,1.0111,1.016,1.0205,1.0273,1.0293,1.0316,1.0361,1.0362,1.0412,1.0427,1.0471,1.0504,1.0492,1.0564,1.0572,1.0575,1.0542,1.0541,1.054,1.0531,1.0521,0,0,0,0,0,1.0012,1.0052,1.0118,1.0155,1.0177,1.0231,1.0257,1.0286,1.0334,1.0354,1.0398,1.0444,1.0488,1.0516,1.056,1.0605,1.062,1.0621,1.0619,1.0618,1.0621,1.0646,1.0647,1.0637,1.0637,1.0637,0,0,1.0005,1.0053,1.0075,1.0148,1.0186,1.0226,1.0247,1.0289,1.0319,1.036,1.041,1.0443,1.0498,1.0545,1.0568,1.0573,1.0627,1.0619,1.0618,1.0622,1.0647,1.0648,1.0649,1.0637,1.0637,1.0637,0,0,1.0013,1.0053,1.0088,1.0126,1.0184,1.0219,1.0227,1.0292,1.0316,1.0366,1.0397,1.0433,1.0508,1.0546,1.0575,1.0595,1.0617,1.0607,1.0602,1.0626,1.0627,1.0628,1.0635,1.0636,1.061,1.061,1.061,0,0.9997,1.0059,1.0103,1.0143,1.0174,1.0213,1.0248,1.0283,1.0351,1.0371,1.0376,1.047,1.051,1.0566,1.057,1.0592,1.0603,1.0601,1.0623,1.0624,1.0626,1.0633,1.0636,1.0608,1.0609,1.0609,1.0609,0,1.0037,1.0079,1.01,1.0166,1.0199,1.0236,1.0285,1.0313,1.0338,1.0372,1.0422,1.0471,1.0525,1.054,1.0565,1.0599,1.06,1.0613,1.0622,1.0625,1.0632,1.0635,1.0606,1.0607,1.0607,1.0608,0,0,1.0023,1.0111,1.0118,1.0148,1.0214,1.0247,1.0285,1.0338,1.0361,1.0407,1.044,1.0501,1.0513,1.0546,1.0575,1.0596,1.0608,1.0607,1.0609,1.0605,1.0648,1.0638,1.0641,1.0623,1.0624,1.0624,1.0644,0,1.004,1.0111,1.0151,1.0206,1.0245,1.0282,1.0315,1.0358,1.0391,1.0429,1.0465,1.0508,1.0521,1.054,1.0563,1.0602,1.0618,1.0601,1.0654,1.0656,1.064,1.0645,1.0635,1.0651,1.0647,1.0648,1.0648,0,1.007,1.0114,1.0173,1.0233,1.0251,1.0281,1.0332,1.0367,1.0417,1.0439,1.0475,1.0503,1.0544,1.0549,1.0606,1.0594,1.0617,1.064,1.0641,1.0648,1.0652,1.0652,1.0657,1.066,1.0653,1.0653,1.0652,0,1.0053,1.0128,1.0173,1.0197,1.0269,1.0288,1.0319,1.0368,1.0397,1.0441,1.046,1.0509,1.0535,1.0572,1.0612,1.0612,1.0665,1.0673,1.0684,1.0683,1.0695,1.0694,1.0704,1.0709,1.0709,1.0709,1.0709,0,1.0068,1.0102,1.0166,1.0194,1.0233,1.0278,1.0315,1.0348,1.0391,1.0425,1.046,1.0491,1.0542,1.0579,1.0611,1.0653,1.0665,1.0684,1.0692,1.0681,1.0679,1.0698,1.0698,1.071,1.071,1.0709,1.0709,0,1.0057,1.0101,1.0152,1.0216,1.0232,1.0258,1.0312,1.034,1.0374,1.0416,1.0428,1.0482,1.0527,1.0571,1.0632,1.0653,1.0695,1.0706,1.0678,1.0683,1.0692,1.0691,1.0716,1.0721,1.0722,1.0722,1.0722,0,1.0064,1.0091,1.0157,1.0183,1.0213,1.0253,1.0283,1.0327,1.0356,1.0414,1.0434,1.0482,1.0523,1.0593,1.0637,1.0684,1.0696,1.0701,1.0703,1.0691,1.0696,1.0694,1.0697,1.07,1.07,1.07,1.07,0,1.0072,1.0092,1.0134,1.0182,1.0217,1.0257,1.0299,1.0317,1.037,1.0401,1.0447,1.0479,1.054,1.0587,1.0638,1.0669,1.0693,1.0698,1.0704,1.0693,1.0676,1.0686,1.0676,1.0698,1.0698,1.0698,1.0698,1.0698,1.007,1.0096,1.0146,1.0191,1.0227,1.0265,1.0294,1.0331,1.0371,1.0425,1.0448,1.0495,1.0543,1.0614,1.0644,1.0681,1.0687,1.0695,1.0697,1.0698,1.0696,1.067,1.0691,1.0691,1.0691,1.0691,1.0691,0,1.008,1.0114,1.0154,1.0212,1.0246,1.0265,1.0312,1.034,1.0381,1.0424,1.0463,1.0516,1.0561,1.0608,1.0656,1.0676,1.0688,1.0687,1.0686,1.0693,1.0688,1.0679,1.0677,1.0677,1.0677,1.0677,1.0677,1.0677,1.0089,1.0133,1.0159,1.0221,1.0255,1.0301,1.0326,1.0361,1.0395,1.0453,1.0491,1.0521,1.0565,1.0616,1.0658,1.0671,1.0687,1.0683,1.0698,1.0693,1.0693,1.0694,1.0686,1.0686,1.0686,1.0701,1.0701,1.0701]},{"header":{"parameterUnit":"m.s-1","parameterCategory":1,"la1":30.2991,"la2":30.254,"lo1":-89.0895,"lo2":-89.0444,"dy":0.0017,"dx":0.0017,"nx":28,"ny":28,"refTime":"2024-06-09T09:00:00:Z","depth":0,"parameterNumber":3,"parameterNumberName":"V-component_of_WINDS"},"data":[0,0,0,0,0,0,0,0,0,0,0,0,0,0,0,0,0,0,0,0,0,0,0,0,0,0,0,0,0,0,0,0,0,0,0,0,0,0,0,0,0,0,0,0,0,0,0,0,0,0,0,0,0,0,0,0,0,0,4.8107,4.8106,0,4.8064,4.8064,4.8063,4.8044,4.8044,4.8044,4.8045,4.7995,4.7993,4.7992,0,0,0,0,0,0,0,0,0,0,0,0,0,4.8166,4.8165,4.8107,4.8106,4.8106,4.8064,4.8064,4.8063,4.8044,4.8044,4.8044,4.8045,4.7995,4.7993,4.7992,0,0,0,0,0,0,0,0,0,0,0,0,0,4.8133,4.8165,4.8107,4.8091,4.809,4.8065,4.8064,4.8063,4.8044,4.8044,4.8044,4.8045,4.7996,4.7994,4.7991,4.7976,0,0,4.7985,4.7984,0,0,0,0,0,0,0,0,4.8135,4.8131,4.8094,4.8092,4.809,4.806,4.8066,4.8034,4.8044,4.8061,4.8045,4.8045,4.8016,4.8012,4.8004,4.7974,4.7972,4.7985,4.7984,4.7983,4.7982,0,0,0,0,0,0,0,4.8138,4.8133,4.809,4.8094,4.8091,4.8085,4.808,4.806,4.8038,4.806,4.8058,4.8054,4.8015,4.8006,4.8002,4.7971,4.7985,4.7983,4.7982,4.7981,4.7928,4.7927,0,0,0,0,0,0,4.8143,4.8135,4.8091,4.8089,4.8114,4.8084,4.8079,4.8069,4.8038,4.8034,4.8054,4.8053,4.8009,4.8005,4.8,4.7981,4.7983,4.7981,4.798,4.7928,4.7928,4.7927,0,0,0,0,0,0,4.8145,4.814,4.8093,4.8111,4.8105,4.8083,4.8072,4.8069,4.806,4.8034,4.8029,4.8049,4.8009,4.8003,4.7983,4.7979,4.798,4.7978,4.7928,4.7928,4.7927,4.7943,0,0,0,0,0,0,4.8146,4.814,4.8135,4.8112,4.8104,4.8078,4.8072,4.8068,4.8057,4.8056,4.8028,4.8024,4.8009,4.7986,4.7981,4.7976,4.7976,4.7928,4.7928,4.7928,4.7942,4.7943,4.7943,0,0,0,0,0,4.8149,4.814,4.8135,4.813,4.8098,4.8078,4.8073,4.8058,4.8057,4.8051,4.8035,4.8025,4.7981,4.7984,4.7978,4.7973,4.7928,4.7928,4.7928,4.7942,4.7943,4.7943,0,0,0,0,0,0,4.8161,4.8136,4.8131,4.8115,4.8099,4.8075,4.8067,4.8059,4.8042,4.8041,4.802,4.8014,4.7996,4.7982,4.7987,4.7957,4.7954,4.7952,4.7967,4.7967,4.7968,4.7971,4.7975,0,0,0,0,0,4.8163,4.815,4.8128,4.8116,4.8108,4.8089,4.808,4.807,4.8051,4.8044,4.8026,4.8007,4.7989,4.7977,4.7959,4.794,4.7934,4.7934,4.7934,4.7935,4.7933,4.7923,4.7922,4.7926,4.7926,4.7926,0,0,4.8164,4.8149,4.8142,4.8118,4.8105,4.8091,4.8084,4.8069,4.8058,4.8041,4.8021,4.8008,4.7985,4.7966,4.7956,4.7954,4.7931,4.7934,4.7935,4.7933,4.7922,4.7922,4.7922,4.7926,4.7926,4.7926,0,0,4.8161,4.8148,4.8137,4.8124,4.8105,4.8092,4.809,4.8067,4.8058,4.8039,4.8026,4.8012,4.7981,4.7966,4.7954,4.7946,4.7936,4.794,4.7943,4.7932,4.7932,4.7932,4.7929,4.7928,4.7939,4.7939,4.7939,0,4.8165,4.8145,4.8131,4.8118,4.8108,4.8094,4.8082,4.807,4.8044,4.8037,4.8035,4.7997,4.798,4.7958,4.7956,4.7947,4.7942,4.7943,4.7934,4.7933,4.7932,4.7929,4.7928,4.794,4.794,4.794,4.7939,0,4.8151,4.8137,4.813,4.8109,4.8098,4.8085,4.8068,4.8058,4.8049,4.8036,4.8016,4.7997,4.7975,4.7969,4.7958,4.7944,4.7944,4.7938,4.7934,4.7933,4.793,4.7928,4.7941,4.794,4.794,4.794,0,0,4.8153,4.8126,4.8123,4.8114,4.8092,4.808,4.8067,4.8048,4.8039,4.8022,4.8009,4.7985,4.798,4.7966,4.7954,4.7946,4.7941,4.7941,4.794,4.7942,4.7923,4.7928,4.7927,4.7934,4.7934,4.7934,4.7925,0,4.8146,4.8123,4.8111,4.8092,4.8079,4.8067,4.8055,4.8039,4.8027,4.8013,4.7999,4.7982,4.7977,4.7969,4.796,4.7943,4.7937,4.7944,4.7921,4.792,4.7927,4.7925,4.7929,4.7922,4.7924,4.7924,4.7924,0,4.8135,4.8121,4.8102,4.8082,4.8076,4.8066,4.8048,4.8035,4.8017,4.8009,4.7995,4.7984,4.7967,4.7965,4.7942,4.7947,4.7937,4.7927,4.7926,4.7923,4.7921,4.7921,4.7919,4.7918,4.7921,4.7922,4.7922,0,4.8138,4.8114,4.81,4.8092,4.8069,4.8062,4.8052,4.8034,4.8024,4.8007,4.8,4.7981,4.797,4.7955,4.7939,4.7939,4.7916,4.7913,4.7908,4.7908,4.7903,4.7904,4.79,4.7897,4.7897,4.7897,4.7897,0,4.8132,4.812,4.8102,4.8093,4.8079,4.8065,4.8052,4.804,4.8025,4.8012,4.8,4.7988,4.7967,4.7952,4.7939,4.7921,4.7916,4.7908,4.7905,4.7909,4.791,4.7902,4.7902,4.7897,4.7897,4.7897,4.7897,0,4.8133,4.812,4.8104,4.8084,4.8079,4.807,4.8052,4.8043,4.8031,4.8015,4.801,4.7991,4.7973,4.7955,4.793,4.7921,4.7904,4.7899,4.7911,4.7909,4.7905,4.7905,4.7894,4.7892,4.7892,4.7892,4.7892,0,4.8129,4.8121,4.8101,4.8093,4.8084,4.8071,4.8061,4.8046,4.8036,4.8015,4.8008,4.799,4.7974,4.7946,4.7928,4.7909,4.7903,4.7901,4.79,4.7905,4.7903,4.7904,4.7903,4.7901,4.7901,4.7901,4.7901,0,4.8125,4.8119,4.8107,4.8092,4.8081,4.8068,4.8054,4.8048,4.803,4.8019,4.8002,4.799,4.7966,4.7948,4.7927,4.7914,4.7904,4.7902,4.79,4.7904,4.7911,4.7907,4.7912,4.7902,4.7902,4.7902,4.7902,4.7902,4.8123,4.8115,4.8101,4.8087,4.8076,4.8064,4.8054,4.8042,4.8028,4.8009,4.8001,4.7983,4.7965,4.7937,4.7924,4.7909,4.7907,4.7903,4.7903,4.7902,4.7903,4.7914,4.7905,4.7905,4.7905,4.7905,4.7905,0,4.8118,4.8108,4.8096,4.8079,4.8068,4.8062,4.8047,4.8038,4.8024,4.8009,4.7995,4.7975,4.7957,4.7939,4.792,4.7911,4.7906,4.7907,4.7907,4.7904,4.7906,4.791,4.7911,4.7911,4.7911,4.7911,4.7911,4.7911,4.8114,4.81,4.8093,4.8074,4.8064,4.8049,4.8041,4.8029,4.8017,4.7997,4.7983,4.7972,4.7955,4.7935,4.7918,4.7913,4.7906,4.7908,4.7902,4.7904,4.7904,4.7903,4.7907,4.7907,4.7907,4.79,4.79,4.79]}]]